Content
SEND FEEDBACK

Daily
Averages
Monthly
Summary
Brazil

SAO CAETANO, BAHIA


Home > South America > Brazil > Bahia
Elevation: 6 meters     Latitude: 12 55S     Longitude: 038 20W

WEATHER
 
SELECT A DAY
Number of Records: 189,802;   Date Range: 6/30/96 - 7/23/14
 
SHARE

PRINT THIS DATA

[ ← Previous Day ]
WEATHER ALMANAC - 13 FEBRUARY, 2013
[ Next Day → ]
[ °F ]   °C
Weather ElementAverageHighLow
Temperature28.5 °C31 °C (11:00 am)26.7 °C (3:00 am)
Dewpoint20.1 °C22 °C (4:00 pm)18.9 °C (3:00 am)
Humidity58.5 %70 % (1:00 am)43 % (3:00 pm)
Barometer1012.9 hPa1014.6 hPa (9:00 am)1011.2 hPa (2:00 am)
Wind Speed15.1 km/h22.2 km/h (9:00 pm)
Weather ElementAverage
Visibility12.1 km
Wind DirectionESE (114.2 °)

Weather ElementTotal
Precipitation---
Cooling Degree Days10.5 (Base 18.3)
Growing Degree Days18.8 (Base 10)
Averaged from 31 records on 13 February, 2013
WEATHER CONDITIONS BREAKOUT
WIND DIRECTION BREAKOUT
WEATHER BY HOUR - 13 FEBRUARY, 2013
[ °F ]   °C
Local TimeTemperatureDewpointHumidityBarometerVisibilityWind DirectionWind SpeedGust SpeedPrecipitationEventsConditions
12:00 AM27 °C20 °C65 %1012.2 hPa10 kmESE (110°)14.8 km/hScattered Clouds
1:00 AM27 °C21 °C70 %1012.2 hPa10 kmEast (100°)13 km/hScattered Clouds
2:00 AM27 °C20 °C65 %1011.2 hPa10 kmESE (120°)13 km/hScattered Clouds
3:00 AM26.7 °C18.9 °C54 %1011.9 hPa19.3 kmESE (120°)9.3 km/hPartly Cloudy
3:00 AM27 °C19 °C61 %1011.2 hPa10 kmESE (120°)9.3 km/hScattered Clouds
4:00 AM27 °C20 °C65 %1012.2 hPa10 kmESE (110°)9.3 km/hScattered Clouds
5:00 AM27 °C19 °C61 %1012.2 hPa10 kmESE (110°)11.1 km/hScattered Clouds
6:00 AM27 °C19 °C61 %1013.2 hPa10 kmEast (100°)9.3 km/hScattered Clouds
6:00 AM26.7 °C18.9 °C53 %1013.2 hPa19.3 kmEast (100°)9.3 km/hPartly Cloudy
7:00 AM28 °C19 °C58 %1013.2 hPa10 kmENE (70°)14.8 km/hScattered Clouds
8:00 AM29 °C19 °C55 %1014.2 hPa10 kmEast (100°)11.1 km/hPartly Cloudy
9:00 AM29.4 °C18.9 °C44 %1014.6 hPa19.3 kmESE (110°)11.1 km/hScattered Clouds
9:00 AM30 °C19 °C51 %1014.2 hPa10 kmESE (110°)11.1 km/hPartly Cloudy
10:00 AM30 °C20 °C55 %1014.2 hPa10 kmSE (140°)13 km/hPartly Cloudy
11:00 AM31 °C20 °C52 %1014.2 hPa10 kmSE (140°)13 km/hPartly Cloudy
12:00 PM31 °C20 °C52 %1014.2 hPa10 kmSSE (160°)14.8 km/hPartly Cloudy
12:00 PM30.6 °C20 °C44 %1014.2 hPa19.3 kmSSE (160°)14.8 km/hScattered Clouds
1:00 PM30 °C20 °C55 %1013.2 hPa10 kmSE (140°)18.5 km/hPartly Cloudy
2:00 PM30 °C20 °C55 %1013.2 hPa10 kmESE (120°)20.4 km/hScattered Clouds
3:00 PM30.6 °C19.4 °C43 %1012.5 hPa19.3 kmSE (130°)18.5 km/hPartly Cloudy
3:00 PM30 °C20 °C55 %1012.2 hPa10 kmSE (130°)18.5 km/hScattered Clouds
4:00 PM29 °C22 °C66 %1012.2 hPa10 kmEast (100°)20.4 km/hScattered Clouds
5:00 PM29 °C22 °C66 %1012.2 hPa10 kmESE (110°)16.7 km/hScattered Clouds
6:00 PM28 °C21 °C66 %1012.2 hPa10 kmEast (100°)18.5 km/hPartly Cloudy
6:00 PM28.3 °C20.6 °C54 %1012.2 hPa19.3 kmEast (100°)18.5 km/hScattered Clouds
7:00 PM28 °C20 °C62 %1012.2 hPa10 kmESE (120°)16.7 km/hPartly Cloudy
8:00 PM28 °C21 °C66 %1013.2 hPa10 kmEast (100°)20.4 km/hPartly Cloudy
9:00 PM27.8 °C21.1 °C59 %1013.9 hPa19.3 kmEast (100°)22.2 km/hScattered Clouds
9:00 PM28 °C21 °C66 %1013.2 hPa10 kmEast (100°)22.2 km/hPartly Cloudy
10:00 PM28 °C21 °C66 %1014.2 hPa10 kmESE (110°)18.5 km/hScattered Clouds
11:00 PM28 °C22 °C70 %1014.2 hPa10 kmEast (100°)16.7 km/hScattered Clouds
Hourly data recorded from SBSV, located 0 kilometers away from Sao Caetano, Bahia







STORIES FROM OUR PARTNERS